User: anonymous   Login
Location: Brad
(46.1333°N, 22.7833°E)
Time: 02:02:29
(UTC+00:00)
Language:

Cosmos 1892 Rocket - Orbit

View from above orbital plane
View from above orbital plane
View from above satellite
View from above satellite

Ground track
Ground track

The orbit data is extracted from the following two-line orbital elements,

1 18422U 87088B   24106.17979202  .00000797  00000-0  92483-4 0  9991
2 18422  82.5143 358.9901 0020156 138.2107 222.0652 14.84038792950406
Epoch (UTC): 15 April 2024 04:18:54
Eccentricity: 0.0020156
inclination: 82.5143°
perigee height: 602 km
apogee height: 631 km
right ascension of ascending node: 358.9901°
argument of perigee: 138.2107°
revolutions per day: 14.84038792
mean anomaly at epoch: 222.0652°
orbit number at epoch: 95040

The dashed part of the orbit path shows where the satellite is in the earth's shadow,  

DLR